www.pogodaiklimat.ru

Погода и климат >> Архив погоды >> Франция >> Дьепп


ПОГОДА в Дьеппе

  • Прогноз погоды в Дьеппе
  • Монитор погоды в Дьеппе

АРХИВ ПОГОДЫ в Дьеппе

Время (UTC), дата Ветер
(напр.,м/с)
 
Видим.   Явления Облачность Т
(С)
Тd
(С)
f
(%)
Тe
(С)
Тes
(С)
Комфортность P
(гПа)
Po
(гПа)
Тmin
(С)
Tmax
(С)
R
(мм)
R24
(мм)
S
(см)
22 8.06 Ю 1-2
{3}
н/о н/о +12.2 +7.7 74 +12 +12 1023.4 1018.5
23 8.06 Ю 2-2
{2}
н/о н/о +11.3 +7.8 79 +11 +11 1023.4 1018.5
00 9.06 Ю 2-2
{2}
н/о н/о +10.3 +7.7 84 +9 +9 1023.4 1018.5
01 9.06 Ю 2-2
{2}
н/о н/о +9.9 +7.8 87 +9 +9 1023.3 1018.4
02 9.06 Ю 2-2
{2}
н/о н/о +9.6 +7.7 88 +8 +8 1023.1 1018.2
03 9.06 Ю 2-2
{2}
10 км 6/6 1200 м
[Cu hum]
+8.9 +7.5 91 +7 +7 1022.7 1017.8
04 9.06 Ю 2-2
{2}
н/о н/о +8.9 +7.7 92 +7 +7 1022.9 1018.0
05 9.06 Ю 2-2
{2}
н/о н/о +9.1 +7.9 92 +8 +8 1022.9 1018.0
06 9.06 Ю 1
{4}
н/о н/о +9.7 +8.1 90 +9 +9 1022.9 1018.0 +8.6 +16.0
07 9.06 Ю 1-2
{2}
н/о н/о +11.1 +9.2 88 +11 +11 1022.6 1017.7
08 9.06 Ю 1-1
{2}
н/о н/о +13.3 +10.5 83 +14 +14 1022.4 1017.6
09 9.06 СВ 1
{4}
14 км 10/5 900 м
[Sc As op]
+14.2 +10.4 78 +15 +16 1022.3 1017.5
10 9.06 СВ 2-3
{3}
н/о н/о +14.7 +10.5 76 +15 +15 1022.0 1017.2
11 9.06 СВ 2-3
{3}
н/о н/о +15.9 +10.9 72 +16 +16 1021.4 1016.6
12 9.06 СВ 3
{9}
12 км 9/5 1080 м
[Sc As op]
+15.9 +11.5 75 +16 +19 1020.8 1016.0
13 9.06 С 4-5
{5}
н/о н/о +15.4 +10.6 73 +15 +15 1020.3 1015.5
14 9.06 СВ 2-4
{5}
н/о н/о +14.8 +11.6 81 +14 +14 1019.9 1015.1
15 9.06 СВ 2
{8}
12 км 9/8 1080 м
[Sc As op]
+14.5 +10.3 76 +14 +15 1019.8 1015.0
16 9.06 СВ 2-4
{4}
н/о н/о +13.7 +11.4 86 +13 +13 1019.5 1014.7
17 9.06 СВ 2-4
{4}
н/о н/о +13.5 +11.2 86 +13 +13 1019.3 1014.5
18 9.06 СВ 3
{8}
12 км слаб. дождь 9/8 1080 м
[Sc As op]
+13.7 +11.2 85 +12 +13 1019.0 1014.2 +9.8 +16.2 0.0
19 9.06 СВ 1-2
{4}
н/о н/о +13.6 +10.9 84 +14 +14 1018.7 1013.9 0.0
20 9.06 СВ 2-2
{2}
н/о н/о +13.8 +11.0 83 +14 +14 1018.3 1013.5 0.0
21 9.06 В 2-2
{2}
10 км {дождь} 10/10 900 м
[Sc]
+14.2 +12.1 87 +14 +14 1018.5 1013.7 0.0
22 9.06 В 1-2
{3}
н/о н/о +13.9 +11.9 88 +14 +14 1018.1 1013.3
23 9.06 СВ 1-1
{1}
н/о н/о +13.7 +12.1 90 +15 +15 1017.8 1013.0
00 10.06 СВ 1-1
{2}
10 км {дождь} 10/10 900 м
[Sc]
+13.7 +12.3 91 +15 +15 1017.2 1012.4
01 10.06 С 1-2
{3}
н/о н/о +13.9 +12.3 90 +14 +14 1017.0 1012.2
02 10.06 С 2-2
{3}
н/о н/о +13.8 +12.7 93 +13 +13 1016.4 1011.6
03 10.06 С 2-3
{4}
10 км слаб. дождь 10/10 900 м
[Sc]
+13.4 +12.1 92 +13 +13 1015.7 1010.9 0.0
04 10.06 С 4-5
{5}
н/о н/о +13.5 +12.1 91 +12 +12 1015.1 1010.3 0.0
05 10.06 С 4-6
{6}
н/о н/о +13.0 +11.9 93 +11 +11 1014.8 1010.0 0.0
06 10.06 С 4
{12}
10 км слаб. дождь 10/10 900 м
[Sc]
+12.9 +11.8 93 +11 +11 1014.7 1009.9 +12.8 +14.2 0.0
07 10.06 С 4-6
{7}
н/о н/о +12.9 +11.5 91 +11 +11 1014.4 1009.6 0.0
08 10.06 С 4-6
{6}
н/о н/о +12.9 +11.5 91 +11 +11 1013.9 1009.1 0.0
09 10.06 СВ 3-6
{7}
10 км {дождь} 10/10 900 м
[St]
+13.4 +11.8 90 +12 +12 1013.2 1008.4 0.0
10 10.06 СВ 3-5
{6}
н/о н/о +14.0 +12.0 88 +13 +13 1013.1 1008.3
11 10.06 С 4-5
{5}
н/о н/о +14.0 +12.0 88 +13 +13 1012.8 1008.0
12 10.06 С 5-7
{8}
10 км {дождь} 10/10 900 м
[St]
+12.4 +11.3 93 +10 +10 1012.4 1007.6
13 10.06 СЗ 4-6
{7}
н/о н/о +12.0 +10.7 92 +10 +10 1013.0 1008.2
14 10.06 СЗ 3-5
{6}
н/о н/о +12.3 +10.5 89 +11 +11 1012.8 1008.0
15 10.06 СЗ 4-5
{6}
н/о н/о +12.5 +10.4 87 +11 +11 1012.8 1008.0
16 10.06 З 3-5
{5}
н/о н/о +12.9 +9.5 80 +12 +12 1012.9 1008.1
17 10.06 З 3-6
{6}
н/о н/о +12.5 +10.2 86 +11 +11 1012.5 1007.7
18 10.06 З 3
{11}
10 км 10/10 900 м
[St]
+12.4 +9.4 82 +11 +11 1012.4 1007.6 +11.8 +14.2
19 10.06 З 3-4
{5}
н/о н/о +12.3 +9.5 83 +11 +11 1012.4 1007.6
20 10.06 З 2-4
{5}
н/о н/о +11.7 +9.8 88 +10 +10 1012.4 1007.6
21 10.06 ЮЗ 2-3
{3}
10 км 8/8 900 м
[St]
+11.7 +9.8 88 +11 +11 1012.4 1007.6
22 10.06 ЮЗ 2-3
{3}
н/о н/о +10.8 +8.9 88 +10 +10 1012.2 1007.4
23 10.06 Ю 2-3
{3}
н/о н/о +9.9 +8.5 91 +9 +9 1011.6 1006.8
00 11.06 Ю 2-3
{3}
10 км 8/8 900 м
[St]
+9.6 +8.5 93 +8 +8 1011.7 1006.8
01 11.06 Ю 2-3
{3}
н/о н/о +9.3 +8.4 94 +8 +8 1011.4 1006.5
02 11.06 Ю 2-3
{3}
н/о н/о +8.9 +8.0 94 +7 +7 1011.1 1006.2
03 11.06 Ю 2-3
{3}
н/о н/о +8.9 +7.8 93 +7 +7 1011.3 1006.4
04 11.06 Ю 2-3
{3}
н/о н/о +8.4 +7.5 94 +7 +7 1011.3 1006.4
05 11.06 Ю 2-3
{4}
н/о н/о +8.5 +7.6 94 +6 +6 1011.5 1006.6
06 11.06 Ю 2
{6}
н/о н/о +9.6 +8.0 90 +8 +8 1011.1 1006.3 +8.1 +12.7
07 11.06 Ю 2-3
{3}
н/о н/о +11.7 +9.1 84 +11 +11 1011.1 1006.3
08 11.06 Ю 1-3
{3}
н/о н/о +13.9 +9.3 74 +14 +14 1011.6 1006.8
09 11.06 ЮЗ 2-3
{3}
н/о н/о +15.0 +8.2 64 +15 +15 1011.8 1007.0
10 11.06 Ю 2-3
{3}
н/о н/о +15.9 +7.9 59 +16 +16 1011.6 1006.9
11 11.06 Ю 2-3
{4}
н/о н/о +16.6 +7.8 56 +17 +17 1011.8 1007.1
12 11.06 Ю 2
{6}
20 км 5/4 480 м
[Cu med, cong Ac trans]
+17.9 +7.6 51 +19 +29 1011.5 1006.8
13 11.06 С 2-4
{4}
н/о н/о +16.8 +9.5 62 +17 +17 1011.6 1006.9
14 11.06 С 3-4
{4}
н/о н/о +15.7 +10.5 71 +15 +15 1011.7 1007.0
15 11.06 СВ 2-5
{5}
н/о н/о +15.1 +10.5 74 +15 +15 1011.8 1007.0
16 11.06 СВ 2-4
{5}
н/о н/о +15.4 +11.0 75 +15 +15 1011.7 1006.9
17 11.06 СВ 2-5
{5}
н/о н/о +15.4 +11.2 76 +15 +15 1011.3 1006.6
18 11.06 СВ 2
{8}
20 км 4/4 480 м
[Cu med, cong]
+15.1 +10.5 74 +15 +15 1011.4 1006.6 +9.7 +18.7
19 11.06 СВ 3-4
{4}
н/о н/о +14.6 +10.0 74 +14 +14 1011.3 1006.5
20 11.06 ЮВ 1-2
{4}
н/о н/о +14.5 +10.3 76 +15 +15 1012.1 1007.3
21 11.06 Ю 1-1
{3}
10 км в посл. час дождь 10/10 300 м
[Frnb]
+12.2 +10.6 90 +13 +13 1011.7 1006.9
22 11.06 В 1-1
{1}
н/о н/о +12.0 +10.4 90 +13 +13 1011.3 1006.5
23 11.06 ЮВ 1-1
{2}
н/о н/о +12.2 +10.8 91 +12 +12 1011.2 1006.4
00 12.06 Ю 1-2
{2}
н/о н/о +12.0 +10.6 91 +12 +12 1010.8 1006.0
01 12.06 Ю 1-2
{2}
н/о н/о +11.6 +10.3 92 +11 +11 1010.2 1005.4
02 12.06 Ю 1-2
{2}
н/о н/о +11.4 +10.0 91 +11 +11 1009.6 1004.8
03 12.06 В 1-1
{2}
н/о н/о +10.9 +9.8 93 +11 +11 1009.2 1004.4
04 12.06 Ю 1-1
{2}
н/о н/о +11.2 +10.3 94 +11 +11 1009.5 1004.7
05 12.06 Ю 1-1
{2}
н/о н/о +11.3 +10.4 94 +12 +12 1009.5 1004.7
06 12.06 Ю 1
{3}
13 км 8/8 400 м
[Cu hum Ac As]
+11.7 +10.8 94 +12 +13 1009.4 1004.6 +10.8 +15.1
07 12.06 ЮВ 1-1
{2}
н/о н/о +12.0 +10.6 91 +13 +13 1009.2 1004.4
08 12.06 Ю 1-2
{2}
н/о н/о +12.9 +11.0 88 +13 +13 1009.4 1004.6
09 12.06 Ю 1-2
{2}
н/о н/о +13.0 +10.7 86 +13 +13 1009.3 1004.5
10 12.06 Ю 2-3
{3}
н/о н/о +13.5 +10.7 83 +13 +13 1009.3 1004.5
11 12.06 Ю 1-3
{3}
н/о н/о +15.7 +10.7 72 +16 +16 1009.1 1004.4
12 12.06 С 2-3
{3}
20 км 8/8 480 м
[St]
+16.2 +10.9 71 +16 +20 1008.8 1004.1
13 12.06 СВ 1-2
{3}
н/о н/о +14.6 +11.2 80 +15 +15 1008.9 1004.1
14 12.06 СВ 1-2
{3}
н/о н/о +14.8 +11.6 81 +15 +15 1008.7 1004.0
15 12.06 СВ 1-3
{3}
н/о н/о +15.6 +11.8 78 +16 +16 1008.2 1003.5
16 12.06 СВ 3-4
{4}
н/о н/о +15.7 +12.1 79 +15 +15 1007.9 1003.2
17 12.06 СВ 2-3
{4}
н/о н/о +14.3 +11.4 83 +14 +14 1007.9 1003.1
18 12.06 СВ 2
{7}
12 км осадки на расстоянии 8/6 800 м
[St Ac As]
+14.0 +11.0 82 +14 +14 1007.9 1003.1 +11.6 +17.7
19 12.06 В 2-2
{3}
н/о н/о +14.6 +11.6 82 +15 +15 1007.9 1003.2
20 12.06 Ю 1-1
{2}
н/о н/о +14.2 +11.2 82 +15 +15 1008.2 1003.4
21 12.06 Ю 1-2
{2}
12 км 8/8 480 м
[Cu Sc]
+13.4 +10.7 84 +14 +14 1008.6 1003.8
22 12.06 Ю 2-3
{3}
н/о н/о +13.1 +11.0 87 +13 +13 1008.7 1003.9
23 12.06 ЮЗ 2-3
{4}
н/о н/о +13.0 +10.7 86 +12 +12 1008.7 1003.9
00 13.06 ЮЗ 5-4
{8}
н/о н/о +12.6 +10.7 88 +10 +10 1008.5 1003.7
01 13.06 ЮЗ 2-4
{4}
н/о {дождь} н/о +12.0 +9.9 87 +11 +11 1008.4 1003.6 0.0
02 13.06 ЮЗ 3-5
{5}
н/о н/о +12.0 +10.1 88 +11 +11 1008.4 1003.6 0.0
03 13.06 ЮЗ 3-5
{5}
14 км {дождь} 9/9 600 м
[Frnb]
+12.0 +10.1 88 +11 +11 1008.4 1003.6 0.0
04 13.06 Ю 3-4
{5}
н/о н/о +12.0 +9.9 87 +11 +11 1008.7 1003.9
05 13.06 ЮЗ 3-4
{5}
н/о н/о +11.9 +9.8 87 +10 +10 1009.1 1004.3
06 13.06 Ю 3
{11}
14 км {дождь} 9/9 600 м
[Sc]
+12.4 +9.9 85 +11 +11 1009.1 1004.3 +11.8 +14.7
07 13.06 ЮЗ 3-5
{6}
н/о н/о +13.4 +9.8 79 +12 +12 1009.2 1004.4
08 13.06 Ю 3-5
{6}
н/о н/о +13.9 +10.3 79 +13 +13 1009.3 1004.5
09 13.06 Ю 3-5
{6}
н/о н/о +14.2 +10.6 79 +13 +13 1009.3 1004.5
10 13.06 Ю 3-5
{6}
н/о н/о +14.5 +11.5 82 +14 +14 1009.4 1004.6
11 13.06 ЮЗ 4-7
{7}
н/о н/о +15.5 +10.3 71 +15 +15 1009.0 1004.3
12 13.06 З 3-5
{5}
н/о н/о +14.3 +10.1 76 +13 +13 1009.4 1004.6
13 13.06 ЮЗ 3-5
{6}
н/о н/о +13.3 +11.4 88 +12 +12 1009.6 1004.8
14 13.06 ЮЗ 3-7
{7}
н/о н/о +15.5 +10.9 74 +15 +15 1009.3 1004.6 0.2
15 13.06 ЮЗ 2
{12}
14 км 10/10 600 м
[Cu Sc]
+16.5 +11.6 73 +17 +17 1009.4 1004.7
16 13.06 З 4-7
{7}
н/о н/о +15.2 +11.0 76 +14 +14 1009.7 1005.0 0.2
17 13.06 ЮЗ 2-4
{5}
н/о н/о +16.8 +11.5 71 +17 +17 1009.6 1004.9
18 13.06 З 2
{8}
14 км 8/4 600 м
[St Ac inh]
+16.6 +10.2 66 +17 +17 1010.2 1005.5 +12.4 +17.4 0.2
19 13.06 З 2-3
{3}
н/о н/о +16.4 +10.7 69 +17 +17 1010.6 1005.9
20 13.06 ЮЗ 1-2
{3}
н/о н/о +15.4 +10.2 71 +16 +16 1011.1 1006.4
21 13.06 Ю 1-2
{2}
14 км 8/4 600 м
[Cu med, cong Ac trans]
+14.8 +11.4 80 +15 +15 1011.5 1006.7
22 13.06 Ю 1-2
{2}
н/о н/о +13.6 +11.5 87 +14 +14 1011.7 1006.9
23 13.06 Ю 2-2
{2}
н/о н/о +12.7 +10.9 89 +12 +12 1011.8 1007.0
00 14.06 Ю 2-2
{3}
10 км ясно +11.6 +10.2 91 +11 +11 1011.8 1007.0
01 14.06 Ю 2-3
{3}
н/о н/о +10.7 +9.6 93 +10 +10 1011.2 1006.4
02 14.06 Ю 2-3
{3}
н/о н/о +10.8 +9.4 91 +9 +9 1011.6 1006.8
03 14.06 Ю 2-3
{3}
10 км 6/6 900 м
[Sc]
+10.8 +9.2 90 +10 +10 1011.7 1006.9
04 14.06 Ю 2-3
{3}
н/о н/о +10.5 +8.9 90 +9 +9 1012.0 1007.2
05 14.06 Ю 2-3
{3}
н/о н/о +11.3 +9.0 86 +10 +10 1012.1 1007.3
06 14.06 Ю 2
{7}
н/о н/о +12.7 +9.3 80 +12 +12 1012.4 1007.6 +10.5 +17.1
07 14.06 Ю 2-4
{4}
н/о н/о +13.8 +9.8 77 +13 +13 1012.7 1007.9
08 14.06 ЮЗ 2-4
{4}
н/о н/о +15.4 +10.0 70 +15 +15 1013.0 1008.2
09 14.06 ЮЗ 2-4
{4}
20 км 1/1 600 м
[Cu hum Ci fib]
+16.9 +8.8 59 +17 +17 1013.1 1008.4
10 14.06 ЮЗ 2-4
{4}
н/о н/о +18.4 +10.2 59 +19 +19 1013.4 1008.7
11 14.06 С 2-3
{5}
н/о н/о +16.3 +11.2 72 +16 +16 1013.8 1009.1
12 14.06 С 2-2
{2}
15 км 8/8 800 м
[Cu hum]
+17.2 +10.3 64 +18 +22 1013.8 1009.1
13 14.06 С 3
{5}
н/о н/о +18.5 +12.3 67 +19 +19 1013.8 1009.1
14 14.06 СВ 2-3
{3}
н/о н/о +16.9 +11.6 71 +17 +17 1013.2 1008.5
15 14.06 СВ 1-3
{3}
15 км 8/8 800 м
[Cu hum]
+16.2 +11.4 73 +17 +20 1013.0 1008.3
16 14.06 СВ 2-3
{3}
н/о н/о +16.2 +11.6 74 +16 +16 1012.7 1008.0
17 14.06 СВ 2-3
{3}
н/о н/о +16.4 +11.8 74 +17 +17 1012.4 1007.7
18 14.06 СВ 2
{6}
15 км 8/8 800 м
[Cu hum Ci fib]
+16.0 +11.6 75 +16 +16 1012.6 1007.9 +12.7 +18.7
19 14.06 В 2-3
{3}
н/о н/о +15.6 +11.6 77 +15 +15 1012.8 1008.0
20 14.06 В 2-2
{3}
н/о н/о +15.3 +11.1 76 +15 +15 1013.0 1008.2
21 14.06 В 2-2
{3}
15 км 8/4 600 м
[Cu med, cong Ac trans Ci sp]
+15.1 +9.0 67 +15 +15 1013.0 1008.2
22 14.06 В 1-1
{2}
н/о н/о +14.7 +10.7 77 +15 +15 1012.8 1008.0
23 14.06 В 1-1
{2}
н/о н/о +14.5 +11.3 81 +16 +16 1012.9 1008.1
00 15.06 штиль 0-1
{1}
10 км 10/0 2000 м
[As trans]
+13.8 +10.2 79 +13 +13 1012.5 1007.7
01 15.06 С 1-1
{1}
н/о н/о +14.3 +11.8 85 +15 +15 1012.4 1007.6
02 15.06 штиль 0-1
{1}
н/о н/о +13.5 +10.8 84 +13 +13 1012.7 1007.9
03 15.06 Ю 1-1
{1}
10 км 10/0 2000 м
[As trans]
+12.6 +10.5 87 +13 +13 1013.0 1008.2
04 15.06 Ю 1-2
{2}
н/о н/о +12.1 +10.5 90 +12 +12 1013.0 1008.2
05 15.06 Ю 1-2
{2}
н/о н/о +12.4 +11.0 91 +12 +12 1013.2 1008.4
06 15.06 Ю 1
{3}
12 км 8/0 2000 м
[As op]
+13.5 +11.2 86 +14 +15 1013.7 1008.9 +11.6 +16.0
07 15.06 З 1-1
{2}
н/о н/о +15.1 +10.9 76 +16 +16 1014.4 1009.6
08 15.06 СЗ 1-1
{2}
н/о н/о +16.7 +11.8 73 +18 +18 1014.6 1009.9
09 15.06 СЗ 1-2
{2}
12 км 5/3 600 м
[Cu med, cong Ci sp]
+16.5 +12.3 76 +17 +17 1014.9 1010.2
10 15.06 СЗ 1-2
{2}
н/о н/о +16.3 +12.5 78 +17 +17 1015.3 1010.5
11 15.06 СЗ 2-3
{3}
н/о н/о +16.7 +12.2 75 +17 +17 1015.6 1010.9
12 15.06 З 2
{8}
18 км 8/5 600 м
[Sc diur, vesp As op]
+17.0 +12.5 75 +18 +23 1015.8 1011.1
13 15.06 Ю 2-4
{4}
н/о н/о +19.4 +10.9 58 +21 +21 комфорт 1015.5 1010.8
14 15.06 ЮЗ 2-4
{5}
н/о н/о +18.3 +10.6 61 +19 +19 1015.8 1011.1
15 15.06 ЮЗ 3-5
{5}
18 км 10/10 600 м
[Cu hum]
+16.4 +10.7 69 +16 +16 1016.2 1011.4
16 15.06 ЮЗ 3-6
{6}
н/о н/о +19.2 +10.5 57 +20 +20 1015.6 1010.9
17 15.06 ЮЗ 2-4
{6}
н/о н/о +18.8 +10.1 57 +20 +20 1015.4 1010.7
18 15.06 ЮЗ 3
{9}
18 км 9/9 600 м
[Cu hum]
+18.7 +10.8 60 +20 +20 1015.5 1010.8 +13.4 +19.9
19 15.06 ЮЗ 4-7
{7}
н/о н/о +17.9 +10.5 62 +18 +18 1015.8 1011.1
20 15.06 ЮЗ 2-4
{7}
н/о н/о +16.0 +11.8 76 +16 +16 1016.3 1011.5
21 15.06 Ю 2-4
{5}
н/о н/о +15.2 +11.6 79 +15 +15 1016.7 1011.9
22 15.06 ЮЗ 3-4
{5}
н/о н/о +15.7 +11.9 78 +15 +15 1016.8 1012.0

 

Местоположение метеостанции Дьепп (Франция): широта 49.93 долгота 1.10 высота над уровнем моря 38 м.

В архиве по умолчанию представлена погода в Дьеппе за последнюю неделю. Архивные данные за месяц целиком и за предыдущие месяцы, начиная с января 2011 года, Вы можете получить, выбрав интересующий диапазон дат из раскрывающегося списка и нажав кнопку "Ввод!".


*Определитесь, кто Вы:
робот инопланетянин человек

Внимание! Время в таблицах - всемирное. Для получения местного времени необходимо прибавить поправку, которая равна 1 ч.

Смотрите также архив погоды в соседних городах и на ближайших метеорологических станциях:

Погода в Аббевилле (Франция) (57 км)
Погода в Руанском (Франция) (61 км)
Погода в Ле-Туке-Пари-Плаже (Франция) (75 км)
Погода в Гавр аэропорту (Франция) (86 км)
Погода в Гавре (Франция) (88 км)
Погода в Бове (Франция) (89 км)
Погода в Довиле (Франция) (91 км)
Погода в Булонь-сюр-Мере (Франция) (96 км)
Погода в Эврё (Франция) (102 км)
Погода в Меоте (Франция) (115 км)

Пояснения к столбцам:

Ветер - указаны скорость ветра в м/с - средняя за 10 мин, порывы в срок и между сроками (в фигурных скобках) и направление, откуда дует ветер: С - северный, СВ - северо-восточный, В - восточный, ЮВ - юго-восточный, Ю - южный, ЮЗ - юго-западный, З - западный, СЗ - северо-западный.
Видимость - горизонтальная дальность видимости в метрах или километрах. При видимости от 1 до 10 км при отсутствии осадков обычно наблюдается дымка, при ухудшении видимости до 1 км и менее - туман. В сухую погоду видимость может ухудшаться дымом, пылью или мглою.
Явления - указаны атмосферные явления, наблюдавшиеся в срок или в последний час перед сроком; фигурными скобками обозначены явления, наблюдавшиеся между сроками (за 1-3 часа до срока); квадратными скобками обозначены град или гололедные отложения с указанием их диаметра в мм.
Облачность - указаны через наклонную черту общая и нижняя облачность в баллах и высота нижней границы облаков в метрах; квадратными скобками обозначены формы облаков: Ci - перистые, Cs - перисто-слоистые, Cc - перисто-кучевые, Ac - высококучевые, As - высокослоистые, Sc - слоисто-кучевые, Ns - слоисто-дождевые, Cu - кучевые, Cb - кучево-дождевые. Подробнее классификацию облаков см. в Атласе облаков (PDF).
T - Температура воздуха - температура, измеренная на высоте 2 м над землей.
Td - Температура точки росы - температура, при понижении до которой содержащийся в воздухе водяной пар достигнет насыщения.
f - Относительная влажность воздуха - влажноcть воздуха, измеренная на высоте 2 м над землей.
Te - Эффективная температура - температура, которую ощущает одетый по сезону человек в тени. Характеристика душности погоды. При расчете учитывается влияние влажности воздуха и скорости ветра на теплоощущения человека.
Tes - Эффективная температура на солнце - температура, которую ощущает человек, с поправкой на солнечный нагрев. Характеристика знойности погоды. Зависит от высоты солнца над горизонтом, облачности и скорости ветра. Ночью, в пасмурную погоду, а также при ветре 12 м/с и более поправка равна нулю.
P - Атмосферное давление - приведенное к уровню моря атмосферное давление.
Po - Атмосферное давление - измеренное на уровне метеостанции атмосферное давление.
Tmin - Минимальная температура - минимум температуры воздуха на высоте 2 м над землей.
Tmax - Максимальная температура - максимум температуры воздуха на высоте 2 м над землей.
R - Количество осадков - Количество выпавших осадков за период времени, мм. При наведении курсора мыши на число - период времени, за который выпало указанное количество осадков.
R24 - Количество осадков - Количество выпавших осадков за 24 часа, мм.
S - Снежный покров - Высота снежного покрова, см. При наведении курсора мыши на число - состояние снежного покрова и степень покрытия местности в баллах.